DW5686 Weather Reports


Display with metric or nautical units.
time (UTC)temp
F
wind
direction
speed
MPH
gust
MPH
rain 1hr
in
rain 24hr
in
rain mn
in
humidity
%
barometer
mb
20260903205502 97 30 3.0 7.0 0.00 0.00 0.00 42 1015.5
20260903205003 97 42 2.0 8.0 0.00 0.00 0.00 42 1015.5
20260903204504 98 154 3.0 9.0 0.00 0.00 0.00 44 1015.5
20260903204003 98 183 5.0 9.0 0.00 0.00 0.00 42 1015.6
20260903203524 97 193 2.0 7.0 0.00 0.00 0.00 43 1015.6
20260903203025 96 13 1.0 7.0 0.00 0.00 0.00 45 1015.6
20260903202525 95 200 1.0 7.0 0.00 0.00 0.00 47 1015.7
20260903202004 95 189 4.0 7.0 0.00 0.00 0.00 44 1015.9
20260903201503 96 167 1.0 6.0 0.00 0.00 0.00 43 1016.0
20260903201003 97 165 3.0 6.0 0.00 0.00 0.00 42 1016.0
20260903200503 95 174 2.0 7.0 0.00 0.00 0.00 48 1016.0
20260903200003 94 131 3.0 7.0 0.00 0.00 0.00 46 1016.1
20260903195504 95 158 1.0 5.0 0.00 0.00 0.00 45 1016.1
20260903195004 96 158 1.0 6.0 0.00 0.00 0.00 43 1016.2
20260903194503 98 150 1.0 7.0 0.00 0.00 0.00 41 1016.2
20260903194002 99 139 3.0 12.0 0.00 0.00 0.00 41 1016.4
20260903193504 100 155 2.0 12.0 0.00 0.00 0.00 40 1016.5
20260903193003 100 176 7.0 12.0 0.00 0.00 0.00 42 1016.4
20260903192502 99 8 2.0 5.0 0.00 0.00 0.00 40 1016.4
20260903192003 99 10 2.0 3.0 0.00 0.00 0.00 41 1016.5
20260903191524 99 212 1.0 8.0 0.00 0.00 0.00 42 1016.6
20260903191003 98 178 2.0 8.0 0.00 0.00 0.00 41 1016.5
20260903190503 97 97 3.0 6.0 0.00 0.00 0.00 45 1016.6
20260903190003 96 4 2.0 7.0 0.00 0.00 0.00 43 1016.7
20260903185504 97 16 2.0 7.0 0.00 0.00 0.00 43 1016.9
20260903185024 98 168 4.0 7.0 0.00 0.00 0.00 42 1016.9
20260903184504 97 161 4.0 7.0 0.00 0.00 0.00 43 1016.9
20260903184003 97 156 4.0 10.0 0.00 0.00 0.00 44 1017.0
20260903183504 97 124 3.0 10.0 0.00 0.00 0.00 45 1016.9
20260903183003 96 29 2.0 9.0 0.00 0.00 0.00 46 1016.9
20260903182503 96 37 7.0 9.0 0.00 0.00 0.00 42 1017.0
20260903182004 96 170 3.0 7.0 0.00 0.00 0.00 44 1017.1
20260903181503 95 138 2.0 5.0 0.00 0.00 0.00 45 1017.1
20260903181002 96 191 2.0 8.0 0.00 0.00 0.00 44 1017.2
20260903180525 97 48 3.0 8.0 0.00 0.00 0.00 45 1017.1
20260903180003 97 342 2.0 10.0 0.00 0.00 0.00 42 1017.1
20260903175503 98 19 6.0 10.0 0.00 0.00 0.00 43 1017.1
20260903175004 98 7 4.0 11.0 0.00 0.00 0.00 45 1017.2
20260903174503 96 13 4.0 11.0 0.00 0.00 0.00 46 1017.2
20260903174003 96 74 2.0 7.0 0.00 0.00 0.00 42 1017.2
20260903173525 97 30 2.0 7.0 0.00 0.00 0.00 42 1017.3
20260903173004 96 24 4.0 7.0 0.00 0.00 0.00 45 1017.4
20260903172503 97 20 2.0 10.0 0.00 0.00 0.00 45 1017.4
20260903172003 96 45 4.0 12.0 0.00 0.00 0.00 45 1017.5
20260903171503 95 21 6.0 12.0 0.00 0.00 0.00 50 1017.6
20260903171004 95 7 5.0 10.0 0.00 0.00 0.00 48 1017.7
20260903170504 95 21 3.0 10.0 0.00 0.00 0.00 48 1017.7
20260903170003 96 24 3.0 8.0 0.00 0.00 0.00 47 1018.0
20260903165503 96 13 2.0 8.0 0.00 0.00 0.00 47 1018.0
20260903165004 96 360 3.0 9.0 0.00 0.00 0.00 45 1018.1
20260903164503 96 16 4.0 9.0 0.00 0.00 0.00 46 1018.1
20260903164003 95 80 2.0 7.0 0.00 0.00 0.00 46 1018.2
20260903163523 95 162 5.0 9.0 0.00 0.00 0.00 46 1018.2
20260903163003 95 27 6.0 11.0 0.00 0.00 0.00 49 1018.3
20260903162503 96 23 6.0 11.0 0.00 0.00 0.00 48 1018.2
20260903162002 95 203 2.0 10.0 0.00 0.00 0.00 48 1018.3
20260903161503 95 3 2.0 12.0 0.00 0.00 0.00 47 1018.3
20260903161003 95 23 8.0 12.0 0.00 0.00 0.00 46 1018.4
20260903160504 94 11 6.0 9.0 0.00 0.00 0.00 49 1018.4
20260903160004 94 37 5.0 9.0 0.00 0.00 0.00 45 1018.4
20260903155503 94 126 3.0 7.0 0.00 0.00 0.00 53 1018.4
20260903155024 93 27 3.0 7.0 0.00 0.00 0.00 49 1018.4
20260903154503 93 47 3.0 7.0 0.00 0.00 0.00 48 1018.4
20260903154003 94 13 3.0 8.0 0.00 0.00 0.00 50 1018.4
20260903153504 93 16 5.0 8.0 0.00 0.00 0.00 53 1018.5
20260903153024 93 43 4.0 7.0 0.00 0.00 0.00 50 1018.5
20260903152503 93 37 2.0 7.0 0.00 0.00 0.00 57 1018.5
20260903152024 92 29 4.0 7.0 0.00 0.00 0.00 57 1018.5
20260903151503 92 8 3.0 7.0 0.00 0.00 0.00 60 1018.5
20260903151024 92 5 4.0 7.0 0.00 0.00 0.00 57 1018.4
20260903150504 90 46 2.0 7.0 0.00 0.00 0.00 60 1018.5
20260903150003 90 65 2.0 8.0 0.00 0.00 0.00 60 1018.5
20260903145524 90 34 2.0 8.0 0.00 0.00 0.00 61 1018.4
20260903145003 90 10 4.0 7.0 0.00 0.00 0.00 63 1018.4
20260903144503 89 11 2.0 7.0 0.00 0.00 0.00 62 1018.4
20260903144004 89 8 2.0 7.0 0.00 0.00 0.00 63 1018.3
20260903143503 89 354 1.0 7.0 0.00 0.00 0.00 63 1018.3
20260903143003 89 354 1.0 7.0 0.00 0.00 0.00 63 1018.3
20260903142503 89 18 2.0 6.0 0.00 0.00 0.00 62 1018.3
20260903142004 88 18 1.0 4.0 0.00 0.00 0.00 63 1018.3
20260903141525 89 18 2.0 4.0 0.00 0.00 0.00 64 1018.4
20260903141003 88 0 0.0 2.0 0.00 0.00 0.00 65 1018.3
20260903140503 88 51 1.0 2.0 0.00 0.00 0.00 69 1018.3
20260903140004 87 51 1.0 3.0 0.00 0.00 0.00 69 1018.3
20260903135525 86 51 1.0 4.0 0.00 0.00 0.00 69 1018.2
20260903135024 86 67 2.0 4.0 0.00 0.00 0.00 68 1018.3
20260903134504 86 212 1.0 2.0 0.00 0.00 0.00 72 1018.2
20260903134003 85 212 1.0 3.0 0.00 0.00 0.00 72 1018.3
20260903133503 84 212 1.0 4.0 0.00 0.00 0.00 72 1018.4
20260903133025 84 212 2.0 4.0 0.00 0.00 0.00 74 1018.3
20260903132503 84 212 1.0 3.0 0.00 0.00 0.00 72 1018.3
20260903132004 84 212 0.0 3.0 0.00 0.00 0.00 76 1018.3
20260903131504 83 211 0.0 2.0 0.00 0.00 0.00 76 1018.4
20260903131003 82 211 2.0 3.0 0.00 0.00 0.00 76 1018.4
20260903130524 82 211 1.0 4.0 0.00 0.00 0.00 78 1018.5
20260903130004 81 210 2.0 4.0 0.00 0.00 0.00 79 1018.5
20260903125524 80 210 2.0 3.0 0.00 0.00 0.00 81 1018.5
20260903125003 79 210 2.0 3.0 0.00 0.00 0.00 82 1018.5
20260903124503 79 210 2.0 3.0 0.00 0.00 0.00 83 1018.5
20260903124003 78 210 0.0 2.0 0.00 0.00 0.00 84 1018.5
20260903123504 78 210 0.0 4.0 0.00 0.00 0.00 84 1018.5
20260903123004 77 207 2.0 4.0 0.00 0.00 0.00 86 1018.4
20260903122503 77 173 2.0 3.0 0.00 0.00 0.00 87 1018.5
20260903122004 76 155 1.0 2.0 0.00 0.00 0.00 88 1018.5
20260903121524 76 155 0.0 2.0 0.00 0.00 0.00 89 1018.4
20260903121003 76 155 1.0 2.0 0.00 0.00 0.00 91 1018.4
20260903120504 75 0 0.0 0.0 0.00 0.00 0.00 91 1018.4
20260903120004 75 0 0.0 1.0 0.00 0.00 0.00 91 1018.4
20260903115524 75 0 0.0 2.0 0.00 0.00 0.00 91 1018.4
20260903115004 75 155 1.0 2.0 0.00 0.00 0.00 92 1018.4
20260903114525 75 0 0.0 0.0 0.00 0.00 0.00 92 1018.4
20260903114004 75 0 0.0 1.0 0.00 0.00 0.00 92 1018.3
20260903113503 74 155 0.0 3.0 0.00 0.00 0.00 92 1018.1
20260903113004 74 155 1.0 5.0 0.00 0.00 0.00 92 1018.1
20260903112504 74 160 2.0 5.0 0.00 0.00 0.00 92 1018.1
20260903112025 74 170 1.0 2.0 0.00 0.00 0.00 92 1018.0
20260903111503 74 170 0.0 3.0 0.00 0.00 0.00 92 1017.9
20260903111025 74 170 2.0 3.0 0.00 0.00 0.00 92 1017.9
20260903110504 74 170 1.0 2.0 0.00 0.00 0.00 92 1017.8
20260903110004 74 0 0.0 2.0 0.00 0.00 0.00 92 1017.7
20260903105503 74 170 0.0 4.0 0.00 0.00 0.00 92 1017.7
20260903105003 74 170 2.0 4.0 0.00 0.00 0.00 92 1017.7
20260903104504 74 170 2.0 3.0 0.00 0.00 0.00 92 1017.7
20260903104005 74 170 1.0 2.0 0.00 0.00 0.00 92 1017.6
20260903103524 74 170 1.0 2.0 0.00 0.00 0.00 92 1017.6
20260903103004 74 170 0.0 2.0 0.00 0.00 0.00 92 1017.6
20260903102504 74 170 2.0 2.0 0.00 0.00 0.00 92 1017.6
20260903102003 74 170 1.0 2.0 0.00 0.00 0.00 92 1017.5
20260903101504 74 170 0.0 2.0 0.00 0.00 0.00 92 1017.5
20260903101024 74 170 1.0 2.0 0.00 0.00 0.00 92 1017.5
20260903100504 74 0 0.0 1.0 0.00 0.00 0.00 92 1017.6
20260903100025 74 0 0.0 0.0 0.00 0.00 0.00 92 1017.7
20260903095503 74 0 0.0 0.0 0.00 0.00 0.00 92 1017.6
20260903095004 74 0 0.0 1.0 0.00 0.00 0.00 91 1017.6
20260903094503 75 0 0.0 2.0 0.00 0.00 0.00 92 1017.5
20260903094004 75 170 0.0 2.0 0.00 0.00 0.00 92 1017.6
20260903093503 75 170 0.0 1.0 0.00 0.00 0.00 92 1017.5
20260903093024 75 0 0.0 2.0 0.00 0.00 0.00 91 1017.4
20260903092524 75 170 1.0 2.0 0.00 0.00 0.00 91 1017.4
20260903092004 75 170 1.0 2.0 0.00 0.00 0.00 91 1017.4
20260903091504 75 0 0.0 0.0 0.00 0.00 0.00 91 1017.4
20260903091025 75 0 0.0 0.0 0.00 0.00 0.00 91 1017.4
20260903090525 75 0 0.0 2.0 0.00 0.00 0.00 91 1017.4
20260903090025 75 0 0.0 2.0 0.00 0.00 0.00 91 1017.4
20260903085504 75 0 0.0 2.0 0.00 0.00 0.00 91 1017.3
20260903085003 75 0 0.0 1.0 0.00 0.00 0.00 91 1017.4
20260903084504 75 0 0.0 2.0 0.00 0.00 0.00 91 1017.4
20260903084004 75 170 0.0 2.0 0.00 0.00 0.00 91 1017.4
20260903083525 75 0 0.0 1.0 0.00 0.00 0.00 91 1017.3
20260903083004 75 0 0.0 1.0 0.00 0.00 0.00 91 1017.2
20260903082504 75 170 0.0 1.0 0.00 0.00 0.00 91 1017.2
20260903082003 75 0 0.0 0.0 0.00 0.00 0.00 91 1017.1
20260903081525 75 0 0.0 0.0 0.00 0.00 0.00 89 1017.3
20260903081003 75 0 0.0 2.0 0.00 0.00 0.00 89 1017.1
20260903080503 76 0 0.0 2.0 0.00 0.00 0.00 89 1017.2
20260903080024 76 170 0.0 2.0 0.00 0.00 0.00 89 1017.1
20260903075504 76 0 0.0 2.0 0.00 0.00 0.00 89 1017.2
20260903075004 76 0 0.0 4.0 0.00 0.00 0.00 89 1017.3
20260903074503 76 170 1.0 4.0 0.00 0.00 0.00 89 1017.1
20260903074003 76 172 2.0 3.0 0.00 0.00 0.00 89 1017.0
20260903073503 76 172 1.0 2.0 0.00 0.00 0.00 89 1017.0
20260903073004 75 172 0.0 1.0 0.00 0.00 0.00 89 1017.0
20260903072503 75 0 0.0 1.0 0.00 0.00 0.00 89 1016.9
20260903072003 75 0 0.0 1.0 0.00 0.00 0.00 89 1016.9
20260903071503 75 0 0.0 1.0 0.00 0.00 0.00 89 1016.9
20260903071024 75 172 0.0 1.0 0.00 0.00 0.00 89 1016.8
20260903070502 76 172 0.0 1.0 0.00 0.00 0.00 88 1016.8
20260903070003 76 0 0.0 1.0 0.00 0.00 0.00 88 1016.8
20260903065503 76 0 0.0 2.0 0.00 0.00 0.00 88 1016.8
20260903065023 76 0 0.0 2.0 0.00 0.00 0.00 87 1016.9
20260903064503 76 172 1.0 2.0 0.00 0.00 0.00 87 1016.9
20260903064002 76 0 0.0 1.0 0.00 0.00 0.00 87 1016.9
20260903063503 76 172 0.0 1.0 0.00 0.00 0.00 87 1016.8
20260903063002 76 172 0.0 1.0 0.00 0.00 0.00 87 1016.8
20260903062503 76 0 0.0 0.0 0.00 0.00 0.00 86 1016.9
20260903062002 76 0 0.0 1.0 0.00 0.00 0.00 86 1016.9
20260903061502 76 0 0.0 2.0 0.00 0.00 0.00 86 1016.7
20260903061023 76 172 0.0 2.0 0.00 0.00 0.00 86 1016.7
20260903060524 76 172 1.0 2.0 0.00 0.00 0.00 86 1016.7
20260903060003 77 172 0.0 2.0 0.00 0.00 0.00 86 1016.8
20260903055503 77 0 0.0 0.0 0.00 0.00 0.00 86 1016.8
20260903055002 77 0 0.0 0.0 0.00 0.00 0.00 84 1016.8
20260903054502 77 0 0.0 0.0 0.00 0.00 0.00 84 1016.8
20260903054003 77 0 0.0 0.0 0.00 0.00 0.00 84 1017.1
20260903053523 77 0 0.0 0.0 0.00 0.00 0.00 84 1017.0
20260903053002 77 0 0.0 0.0 0.00 0.00 0.00 84 1016.9
20260903052502 77 0 0.0 0.0 0.00 0.00 0.00 84 1016.9
20260903052002 77 0 0.0 0.0 0.00 0.00 0.00 84 1016.8
20260903051523 78 0 0.0 0.0 0.00 0.00 0.00 83 1016.9
20260903051003 78 0 0.0 0.0 0.00 0.00 0.00 83 1016.9
20260903050502 78 0 0.0 0.0 0.00 0.00 0.00 83 1016.9
20260903050003 78 0 0.0 0.0 0.00 0.00 0.00 82 1016.9
20260903045503 78 0 0.0 1.0 0.00 0.00 0.00 82 1016.9
20260903045002 78 172 0.0 1.0 0.00 0.00 0.00 82 1017.0
20260903044503 78 172 0.0 1.0 0.00 0.00 0.00 82 1017.0
20260903044002 78 172 0.0 1.0 0.00 0.00 0.00 82 1017.0
20260903043502 78 172 0.0 1.0 0.00 0.00 0.00 81 1016.8
20260903043002 78 0 0.0 1.0 0.00 0.00 0.00 81 1016.9
20260903042503 78 172 0.0 2.0 0.00 0.00 0.00 79 1016.9
20260903042002 78 172 1.0 2.0 0.00 0.00 0.00 81 1017.1
20260903041503 78 172 0.0 2.0 0.00 0.00 0.00 79 1017.2
20260903041002 78 0 0.0 1.0 0.00 0.00 0.00 79 1017.2
20260903040502 79 172 0.0 1.0 0.00 0.00 0.00 79 1017.3
20260903040002 79 0 0.0 2.0 0.00 0.00 0.00 78 1017.2
20260903035523 79 172 1.0 2.0 0.00 0.00 0.00 78 1017.3
20260903035003 79 172 1.0 2.0 0.00 0.00 0.00 78 1017.3
20260903034503 79 0 0.0 0.0 0.00 0.00 0.00 77 1017.3
20260903034003 79 0 0.0 0.0 0.00 0.00 0.00 78 1017.3
20260903033524 79 0 0.0 0.0 0.00 0.00 0.00 78 1017.4
20260903033024 79 0 0.0 0.0 0.00 0.00 0.00 78 1017.5
20260903032502 80 0 0.0 0.0 0.00 0.00 0.00 78 1017.6
20260903032024 80 0 0.0 2.0 0.00 0.00 0.00 77 1017.6
20260903031504 80 172 1.0 2.0 0.00 0.00 0.00 77 1017.7
20260903031003 80 172 2.0 2.0 0.00 0.00 0.00 77 1017.6
20260903030502 80 172 0.0 1.0 0.00 0.00 0.00 77 1017.7
20260903030003 80 0 0.0 0.0 0.00 0.00 0.00 76 1017.7
20260903025502 80 0 0.0 0.0 0.00 0.00 0.00 76 1017.9
20260903025002 80 0 0.0 0.0 0.00 0.00 0.00 76 1017.9
20260903024503 80 0 0.0 0.0 0.00 0.00 0.00 76 1018.0
20260903024003 80 0 0.0 0.0 0.00 0.00 0.00 75 1018.0
20260903023503 80 0 0.0 0.0 0.00 0.00 0.00 75 1018.1
20260903023003 81 0 0.0 0.0 0.00 0.00 0.00 75 1017.9
20260903022503 81 0 0.0 0.0 0.00 0.00 0.00 75 1017.9
20260903022002 81 0 0.0 0.0 0.00 0.00 0.00 75 1018.0
20260903021524 81 0 0.0 0.0 0.00 0.00 0.00 75 1018.0
20260903021002 81 0 0.0 0.0 0.00 0.00 0.00 75 1018.0
20260903020502 81 0 0.0 0.0 0.00 0.00 0.00 74 1018.0
20260903020004 82 0 0.0 0.0 0.00 0.00 0.00 74 1017.9
20260903015503 82 0 0.0 0.0 0.00 0.00 0.00 74 1017.9
20260903015003 82 0 0.0 1.0 0.00 0.00 0.00 72 1017.8
20260903014503 82 172 0.0 4.0 0.00 0.00 0.00 71 1017.8
20260903014003 83 172 1.0 7.0 0.00 0.00 0.00 71 1017.6
20260903013502 83 178 3.0 7.0 0.00 0.00 0.00 71 1017.5
20260903013025 82 0 0.0 0.0 0.00 0.00 0.00 70 1017.5
20260903012502 82 0 0.0 1.0 0.00 0.00 0.00 69 1017.3
20260903012003 82 0 0.0 1.0 0.00 0.00 0.00 69 1017.3
20260903011503 83 0 0.0 0.0 0.00 0.00 0.00 68 1017.3
20260903011002 83 0 0.0 0.0 0.00 0.00 0.00 68 1017.3
20260903010503 83 0 0.0 0.0 0.00 0.00 0.00 67 1017.2
20260903010004 84 0 0.0 2.0 0.00 0.00 0.00 65 1017.2
20260903005502 84 23 0.0 2.0 0.00 0.00 0.00 65 1017.1
20260903005003 84 23 2.0 2.0 0.00 0.00 0.00 65 1017.1
20260903004502 84 23 0.0 6.0 0.00 0.00 0.00 65 1017.0
20260903004024 84 23 0.0 6.0 0.00 0.00 0.00 64 1017.0
20260903003503 84 0 0.0 0.0 0.00 0.00 0.00 64 1017.1
20260903003024 84 0 0.0 0.0 0.00 0.00 0.00 64 1017.0
20260903002503 85 0 0.0 0.0 0.00 0.00 0.00 64 1017.0
20260903002003 85 0 0.0 0.0 0.00 0.00 0.00 63 1016.9
20260903001504 85 0 0.0 0.0 0.00 0.00 0.00 63 1016.9
20260903001002 86 0 0.0 1.0 0.00 0.00 0.00 62 1017.0
20260903000504 86 0 0.0 1.0 0.00 0.00 0.00 61 1016.9
20260903000003 86 0 0.0 3.0 0.00 0.00 0.00 61 1016.8
20260902235503 86 23 1.0 3.0 0.00 0.00 0.00 61 1016.7
20260902235002 86 23 0.0 1.0 0.00 0.00 0.00 60 1016.7
20260902234502 87 0 0.0 2.0 0.00 0.00 0.00 60 1016.6
20260902234002 87 23 0.0 4.0 0.00 0.00 0.00 59 1016.7
20260902233503 88 23 2.0 4.0 0.00 0.00 0.00 58 1016.7
20260902233003 88 23 2.0 2.0 0.00 0.00 0.00 58 1016.7
20260902232502 88 23 1.0 2.0 0.00 0.00 0.00 56 1016.7
20260902232025 89 23 0.0 4.0 0.00 0.00 0.00 56 1016.7
20260902231523 90 23 1.0 4.0 0.00 0.00 0.00 53 1016.7
20260902231003 90 23 1.0 5.0 0.00 0.00 0.00 52 1016.8
20260902230524 91 3 2.0 5.0 0.00 0.00 0.00 50 1016.7
20260902230003 91 25 2.0 6.0 0.00 0.00 0.00 50 1016.8
20260902225504 91 7 3.0 6.0 0.00 0.00 0.00 48 1016.7
20260902225024 91 349 2.0 4.0 0.00 0.00 0.00 50 1016.7
20260902224503 92 349 1.0 4.0 0.00 0.00 0.00 49 1016.7
20260902224024 92 348 0.0 3.0 0.00 0.00 0.00 49 1016.7
20260902223503 92 348 1.0 3.0 0.00 0.00 0.00 49 1016.6
20260902223003 92 348 1.0 3.0 0.00 0.00 0.00 46 1016.7
20260902222502 92 348 0.0 2.0 0.00 0.00 0.00 48 1016.7
20260902222002 92 348 0.0 4.0 0.00 0.00 0.00 48 1016.8
20260902221504 92 348 1.0 4.0 0.00 0.00 0.00 46 1016.7
20260902221002 93 348 2.0 5.0 0.00 0.00 0.00 47 1016.7
20260902220503 93 3 2.0 5.0 0.00 0.00 0.00 46 1016.7
20260902220024 93 7 0.0 7.0 0.00 0.00 0.00 45 1016.7
20260902215503 93 9 4.0 7.0 0.00 0.00 0.00 42 1016.8
20260902215024 93 20 3.0 7.0 0.00 0.00 0.00 44 1016.8
20260902214525 93 1 0.0 7.0 0.00 0.00 0.00 45 1016.7
20260902214003 94 4 4.0 7.0 0.00 0.00 0.00 43 1016.7
20260902213502 94 347 0.0 7.0 0.00 0.00 0.00 43 1016.8
20260902213002 94 360 4.0 8.0 0.00 0.00 0.00 45 1016.8
20260902212503 95 16 5.0 8.0 0.00 0.00 0.00 43 1016.9
20260902212002 95 31 3.0 9.0 0.00 0.00 0.00 44 1016.9
20260902211503 95 33 6.0 12.0 0.00 0.00 0.00 43 1016.9
20260902211002 95 25 6.0 12.0 0.00 0.00 0.00 45 1017.0
20260902210503 95 14 5.0 9.0 0.00 0.00 0.00 43 1017.0
20260902210003 95 30 6.0 9.0 0.00 0.00 0.00 43 1017.0